Location: Oberkirch
(48.5323°N, 8.0787°E)
Time: 20:14:47
(UTC+00:00)

Tiros 1 - Pass Details

Date: 25 February 2026
Orbit: 618 x 649 km, 48.4° (Epoch: 5 March)

Event Time Altitude Azimuth Distance (km) Brightness Sun altitude
Rises 09:10:55 0° 279° (W) 2,916 10.1 23.7°
Reaches altitude 10° 09:13:15 10° 278° (W) 2,002 9.3 23.9°
Maximum altitude 09:17:51 77° 193° (SSW) 644 7.7 24.4°
Drops below altitude 10° 09:22:24 10° 108° (ESE) 1,983 10.7 24.9°
Sets 09:24:42 0° 107° (ESE) 2,885 11.3 25.1°
